Starlink 34289

operational
NORAD ID: 64225 Int'l Des: 2025-117 Owner: SPXS Country: US Constellation: starlink
LEOCIRCULAR

About Starlink 34289

Description loading...

Live Position

Loading 3D Globe...

Upcoming Passes

Altitude History

Altitude vs Time

uPlot chart will show altitude changes over time

Two-Line Element Set

1 64225U 25117Y 26046.66694950 .00023998 00000-0 81924-3 0 9996
2 64225 53.1599 141.9112 0001358 88.4185 271.6971 15.30220891 41181
Epoch: Feb 15, 2026 • Age: 17 hours

Current Status

Altitude 488.1 km
Velocity 7.62 km/s
Sub-Earth Point -38.08°S, 77.79°E
Launch Date May 31, 2025
Age 0.7 years
Type internet

Technical Details

Classification Payload
Mass 575.00 kg
Dry Mass 530.00 kg
Total Mass 575.00 kg
Length 0.30 m
Diameter 4.10 m
Span 29.00 m
Shape Box + pan
Manufacturer SPXS
Bus Type Starlink V2MO
Phase Status In Orbit
Owner/State SPXS/US

Large Constellations

Loading constellations...